Overview Statistics Trail Chart Weather Telemetry Raw packets
 

This is the latest recevied weather packets stored in our database for station/object KB1RMA-4. If no packets are shown the sender has not sent any weather packets the latest 10 day(s).

<< 13 14 15 16 17 18 19 >>
Time Temp. Humidity Pressure Rain* Wind** Luminosity Snow
1788542441 27.78° C 53% 1008.5 hPa 0 mm - 711 W/m² -
1788542137 26.11° C 57% 1008.7 hPa 0 mm - 684 W/m² -
1788541833 26.11° C 62% 1008.7 hPa 0 mm - 107 W/m² -
1788541528 26.67° C 60% 1008.9 hPa 0 mm - 189 W/m² -
1788541224 28.33° C 56% 1008.6 hPa 0 mm - 327 W/m² -
1788540923 27.78° C 54% 1009 hPa 0 mm - 757 W/m² -
1788540622 28.33° C 50% 1008.9 hPa 0 mm - 204 W/m² -
1788540318 28.33° C 52% 1008.9 hPa 0 mm - 727 W/m² -
1788540014 28.33° C 52% 1008.7 hPa 0 mm - 729 W/m² -
1788539713 28.33° C 52% 1008.8 hPa 0 mm - 714 W/m² -
1788539409 27.78° C 55% 1008.6 hPa 0 mm - 711 W/m² -
1788539102 27.78° C 53% 1008.8 hPa 0 mm - 689 W/m² -
1788538798 27.78° C 52% 1009 hPa 0 mm - 686 W/m² -
1788538493 28.33° C 54% 1008.9 hPa 0 mm - 683 W/m² -
1788538189 27.78° C 55% 1009 hPa 0 mm - 670 W/m² -
1788537883 27.78° C 56% 1009.1 hPa 0 mm - 671 W/m² -
1788537579 27.78° C 55% 1009.2 hPa 0 mm - 685 W/m² -
1788537279 27.22° C 56% 1009 hPa 0 mm - 698 W/m² -
1788536977 27.78° C 60% 1009.1 hPa 0 mm - 687 W/m² -
1788536672 27.22° C 59% 1009.2 hPa 0 mm - 662 W/m² -
1788536367 27.22° C 64% 1009.1 hPa 0 mm - 675 W/m² -
1788536062 27.22° C 63% 1009.5 hPa 0 mm - 684 W/m² -
1788535759 26.67° C 64% 1009.4 hPa 0 mm - 693 W/m² -
1788535454 27.22° C 64% 1009.2 hPa 0 mm - 682 W/m² -
1788535153 26.67° C 66% 1009.4 hPa 0 mm - 670 W/m² -

* Rain latest hour (hover to see other rain measurements)
** Current wind speed in m/s (hover to see current wind gust speed)